SCP
1 1 1 0 0 0 0 0 0 0 0 0 0 0 0 0 0 0 0 0 0 0 0 0 0 1 0 0 0 0 0 0 0 1 1 1 1 1 1 1 0 0 0
1 1 1 0 0 0 0 0 0 0 0 0 0 0 0 0 0 0 0 0 0 0 0 0 0 0 0 0 0 0 0 0 0 0 1 1 1 1 1 0 0 0 0
0 0 0 0 0 0 0 0 0 0 0 0 0 0 0 0 0 0 0 0 0 0 0 0 0 0 0 0 0 0 0 0 0 0 1 0 1 1 1 1 1 0 1
0 0 0 0 0 0 0 0 0 0 0 0 0 0 0 0 0 0 0 0 0 0 0 0 0 0 0 0 0 0 0 0 0 0 0 0 1 1 1 1 1 1 1
0 0 0 0 0 0 0 0 0 0 0 0 0 0 0 0 0 0 0 0 0 0 0 0 0 0 0 0 0 0 0 0 0 0 0 0 0 0 0 0 0 1 1
0 0 0 0 0 0 0 0 0 0 0 0 0 0 0 0 0 0 0 0 0 0 0 0 0 0 0 0 0 0 0 0 0 0 0 0 0 0 0 0 1 1 1
0 0 0 0 0 0 0 0 0 0 0 0 0 0 0 0 0 0 0 0 0 0 0 0 0 0 0 0 0 0 0 0 0 0 0 0 0 0 0 0 1 1 1
0 0 0 0 0 0 0 0 0 0 0 0 0 0 0 0 0 0 0 0 0 0 0 0 0 0 0 0 0 0 0 0 0 0 0 0 0 0 0 1 1 1 1
0 0 0 0 0 0 0 0 0 0 0 0 0 0 0 0 0 0 0 0 0 0 0 0 0 0 0 0 0 0 0 0 0 0 0 0 0 1 1 1 1 1 1
0 0 0 0 0 0 0 0 0 0 0 0 0 0 0 0 0 0 0 0 0 0 0 0 0 0 0 0 0 0 0 0 0 0 0 0 1 1 1 1 1 1 1
0 0 0 0 0 0 0 0 0 0 0 0 0 0 0 0 0 0 0 0 0 0 0 0 0 0 0 0 0 0 0 0 0 0 0 0 1 1 1 1 1 1 1
0 0 0 0 0 0 0 0 0 0 0 0 0 0 0 0 0 0 0 0 0 0 0 0 0 0 0 0 0 0 0 0 0 0 0 0 0 1 1 0 0 1 0
0 0 0 0 0 0 0 0 0 0 0 0 0 0 0 0 0 0 0 0 0 0 0 0 0 0 0 0 0 0 0 0 0 0 0 0 0 0 0 0 0 0 0
0 0 0 0 0 0 0 0 0 0 0 0 0 0 0 0 0 0 0 0 0 0 0 0 0 0 0 0 0 0 0 0 0 0 0 0 0 0 0 0 0 0 0
0 0 0 0 0 0 0 0 0 0 0 0 0 0 0 0 0 0 0 0 0 0 0 0 0 0 0 0 0 0 0 0 0 0 0 0 0 0 0 0 0 0 0
0 0 0 0 0 0 0 0 0 0 0 0 0 0 0 0 0 0 0 0 0 0 0 0 0 0 0 0 0 0 0 0 0 0 0 0 0 0 0 0 0 0 0
0 0 0 0 0 0 0 0 0 0 0 0 0 0 0 0 0 0 0 0 0 0 0 0 0 0 0 0 0 0 0 0 0 0 0 0 0 0 0 0 0 0 0
0 0 0 0 0 0 0 0 0 0 0 0 0 0 0 0 0 0 0 0 0 0 0 0 0 0 0 0 0 0 0 0 0 0 0 0 0 0 0 0 0 0 0
0 0 0 0 0 0 0 0 0 0 0 0 0 0 0 0 0 0 0 0 0 0 0 0 0 0 0 0 0 0 0 0 0 0 0 0 0 0 0 0 0 0 0
0 0 0 0 0 0 0 0 0 0 0 0 0 0 0 0 0 0 0 0 0 0 0 0 0 0 0 0 0 0 0 0 0 0 0 0 0 0 0 0 0 0 0
0 0 0 0 0 0 0 0 0 0 0 0 0 0 0 0 0 0 0 0 0 0 0 0 0 0 0 0 0 0 0 0 0 0 0 0 0 0 0 0 0 0 0
0 0 0 0 0 0 0 0 0 0 0 0 0 0 0 0 0 0 0 0 0 0 0 0 0 0 0 0 0 0 0 0 0 0 0 0 0 0 0 0 0 0 0
0 0 0 0 0 0 0 0 0 0 0 0 0 0 0 0 0 0 0 0 0 0 0 0 0 0 0 0 0 0 0 0 0 0 0 0 0 0 0 0 0 0 0
0 0 0 0 0 0 0 0 0 0 0 0 0 0 0 0 0 0 0 0 0 0 0 0 0 0 0 0 0 0 0 0 0 0 0 0 0 0 0 0 0 0 0
0 0 0 0 0 0 0 0 0 0 0 0 0 0 0 0 0 0 0 0 0 0 0 0 0 0 0 0 0 0 0 0 0 0 0 0 0 0 0 0 0 0 0
0 0 0 0 0 0 0 0 0 0 0 0 0 0 0 0 0 0 0 0 0 0 0 0 0 0 0 0 0 0 0 0 0 0 0 0 0 0 0 0 0 0 0
Wind_Speed
2 2 2 2 3 3 3 3 4 5 5 5 5 6 5 5 5 5 4 10 11 11 11 11 11 11 11 12 12 13 13 12 12 12 13 13 12 12 12 12 12 12 12
2 2 3 3 3 3 3 3 4 4 4 4 5 5 5 5 5 5 5 7 11 12 11 11 11 11 12 12 12 13 13 13 13 13 13 13 13 13 12 13 13 13 12
3 3 3 3 2 3 4 4 4 4 4 4 5 5 4 5 5 6 6 5 5 9 11 12 12 12 12 12 12 13 13 13 13 13 13 13 13 13 13 13 13 13 13
4 3 3 3 3 3 3 3 4 4 4 4 4 4 4 4 5 5 5 5 5 5 8 12 13 13 13 13 13 13 13 13 13 13 13 13 13 13 13 13 13 13 13
4 4 3 3 3 3 3 3 3 3 4 4 4 4 4 4 4 5 5 6 5 5 5 8 12 12 12 12 12 12 12 12 12 12 12 13 13 13 13 13 13 13 13
4 4 3 3 3 3 3 3 4 3 3 3 5 5 4 4 4 4 4 4 5 5 5 6 6 7 11 12 12 12 12 12 12 12 12 12 12 13 12 13 13 13 13
3 4 3 3 3 3 3 4 4 4 3 2 3 3 4 4 5 4 3 4 5 5 5 5 4 4 4 10 11 12 12 12 12 12 12 12 12 12 12 13 13 14 14
2 3 4 3 3 4 4 4 4 3 2 1 2 3 2 3 4 4 3 3 4 4 4 5 4 5 4 4 7 11 11 11 11 11 12 12 12 12 12 13 13 13 13
2 2 3 4 4 4 4 4 4 4 3 1 1 3 3 2 1 3 3 3 3 3 3 3 5 5 5 4 4 7 10 10 10 11 11 11 11 11 12 12 12 13 13
2 2 3 3 4 3 4 4 3 2 3 2 1 2 2 3 3 1 2 3 3 4 3 3 4 4 4 3 5 8 9 9 9 10 10 10 11 11 11 12 12 12 13
1 1 2 2 3 3 4 3 3 2 2 3 2 2 2 2 2 3 1 1 2 2 2 3 3 3 3 3 3 6 9 9 9 10 10 10 11 11 11 11 12 12 12
1 1 1 2 2 2 3 4 3 3 3 3 2 2 3 3 3 3 3 1 0 1 2 2 2 2 2 3 4 7 8 9 10 10 11 10 10 11 11 12 12 12 12
1 1 1 2 2 2 3 3 3 3 4 3 3 2 2 2 3 3 4 2 1 1 1 1 1 2 2 2 3 6 8 9 9 10 11 11 11 11 11 12 12 12 12
2 2 1 1 2 2 3 3 3 3 3 3 4 3 2 2 3 4 4 4 3 1 1 1 1 1 1 2 3 5 4 9 9 10 10 11 11 11 11 12 12 12 12
2 2 2 2 2 2 2 3 2 3 3 3 3 3 3 2 3 3 3 4 5 3 1 1 0 1 1 2 3 3 3 7 8 9 9 10 10 11 11 11 11 11 11
2 2 2 2 2 2 2 2 2 2 3 3 2 3 3 2 3 3 3 3 3 4 2 1 1 1 1 2 4 3 3 6 7 8 8 9 9 9 9 9 9 10 10
2 2 2 2 2 2 2 2 2 2 3 2 3 4 4 3 3 3 3 3 3 3 3 1 1 1 2 2 2 2 3 3 3 6 7 7 8 8 8 8 8 9 9
2 2 2 2 2 2 2 3 3 3 3 4 3 4 4 3 4 4 3 4 3 3 4 3 1 1 1 2 2 2 2 2 2 4 5 6 6 7 7 7 8 7 7
3 2 2 3 2 2 3 3 3 3 3 4 4 4 4 5 4 4 4 4 3 3 3 4 3 1 1 1 2 2 2 2 1 2 3 4 5 5 6 6 6 6 6
3 3 3 3 3 3 3 2 3 3 3 3 3 4 4 5 6 6 5 5 4 4 4 4 3 2 1 1 2 2 1 1 1 1 2 2 3 3 4 4 4 5 5
3 3 3 3 2 2 2 2 3 3 3 3 3 3 4 6 7 7 5 6 6 5 4 4 3 2 2 3 3 2 2 1 1 0 1 1 1 1 2 2 2 2 3
3 3 3 3 3 3 4 4 3 3 3 4 4 3 3 4 7 8 9 10 10 8 7 5 4 4 4 4 3 3 3 2 1 1 1 0 0 0 1 1 2 1 1
3 3 3 4 4 4 5 5 5 3 3 4 4 4 3 4 5 4 6 9 10 11 11 8 7 7 6 7 6 5 4 3 2 2 2 1 0 1 1 1 2 1 1
3 4 4 4 4 5 6 5 5 3 2 3 4 5 5 4 4 5 5 5 5 6 8 7 7 7 6 7 8 7 5 3 1 1 2 1 1 2 1 1 2 2 2
3 4 3 4 4 5 6 6 5 2 2 4 4 4 5 4 6 7 6 5 5 4 5 7 6 6 8 10 9 6 5 4 2 2 2 2 1 1 1 2 2 3 2
4 4 4 4 4 4 5 6 6 3 3 3 3 3 6 6 7 8 7 7 7 6 5 5 4 4 5 8 12 8 7 5 3 2 3 3 2 1 1 1 1 1 1
Wind_Direction
97 88 84 80 76 76 78 76 73 69 66 63 63 63 55 48 40 33 24 45 53 58 65 74 75 73 72 69 67 66 64 64 62 59 57 56 54 54 54 53 53 53 52
115 106 100 91 83 82 81 79 78 77 71 68 62 56 52 47 43 40 34 37 47 55 59 65 70 72 74 71 68 66 64 64 61 60 58 55 53 53 53 52 53 52 51
122 117 112 105 98 93 92 86 77 75 77 72 62 55 52 49 49 45 40 35 35 46 54 60 63 67 72 71 68 66 64 62 59 57 57 56 54 53 55 54 54 53 51
128 123 119 116 111 98 93 93 85 81 75 73 67 54 50 47 47 48 46 42 38 39 45 53 58 61 65 68 67 65 64 63 60 57 55 54 54 54 54 54 53 52 51
135 131 128 124 118 106 97 102 90 97 95 87 78 61 49 44 38 47 48 45 45 43 40 45 50 54 60 62 65 64 63 62 61 60 57 56 55 54 53 53 54 52 50
133 126 126 130 125 115 106 104 103 89 94 98 88 70 51 44 42 42 42 43 45 46 44 42 39 42 50 54 58 59 59 59 59 57 56 56 55 54 53 53 54 53 50
131 131 133 136 135 132 133 128 115 103 90 99 86 62 40 42 45 38 35 43 44 44 47 44 39 35 35 42 47 52 53 55 56 55 55 55 56 54 55 54 52 51 51
120 140 145 150 143 130 131 137 128 117 109 94 108 97 48 19 23 30 32 43 40 40 46 47 43 39 34 30 38 44 44 49 53 54 54 54 55 56 56 54 53 52 51
105 117 142 148 151 150 157 160 151 139 143 103 89 132 136 169 18 13 26 35 37 41 37 41 44 37 37 34 29 36 40 42 48 51 52 53 56 58 57 56 55 53 52
102 114 135 148 155 157 161 173 166 149 142 149 97 69 114 141 136 87 10 15 34 41 34 42 39 36 33 33 36 41 43 40 43 47 50 55 60 60 58 57 57 55 54
76 114 139 148 156 162 170 172 168 163 156 156 154 138 101 80 99 130 133 358 20 25 36 40 37 33 27 27 28 46 46 43 43 46 51 55 58 59 58 58 58 57 55
16 72 145 166 170 170 177 182 179 174 174 161 158 156 154 151 158 143 145 148 68 356 21 37 37 25 26 26 41 55 53 51 49 50 50 52 53 54 56 57 59 58 57
294 270 193 182 186 192 185 179 175 182 179 175 181 181 173 164 148 142 136 139 124 8 14 21 17 17 35 33 30 52 59 59 57 56 53 52 54 55 55 55 58 57 57
230 236 216 199 200 191 187 180 179 189 184 190 196 182 168 171 156 152 150 142 127 65 24 329 6 17 28 40 43 46 53 66 64 62 59 54 54 55 56 54 55 55 54
234 214 200 198 203 192 186 178 186 192 185 191 191 186 179 175 165 162 150 149 147 159 209 224 143 9 42 63 56 55 52 67 68 67 64 60 57 57 56 54 53 53 53
244 208 202 201 198 188 178 176 188 189 184 196 185 177 179 172 168 164 158 147 144 150 168 188 174 148 108 102 86 64 56 69 69 70 70 67 63 61 60 57 54 53 53
226 209 210 202 199 197 186 177 197 192 192 205 197 185 191 174 170 166 154 147 146 137 143 150 102 98 100 101 73 60 61 50 55 72 70 68 66 62 60 58 56 53 51
221 213 208 206 208 202 193 188 200 203 200 203 207 197 195 177 174 167 163 165 162 149 144 155 149 121 114 132 110 87 69 67 61 74 72 71 70 65 61 58 55 53 52
221 212 200 207 213 209 205 205 203 203 208 206 202 203 197 177 183 175 171 169 164 155 138 144 151 129 110 123 100 82 68 30 56 77 74 68 68 67 63 61 58 52 51
216 212 208 213 211 211 204 205 206 205 208 211 205 205 200 190 188 180 177 173 160 149 138 139 142 140 132 130 127 130 94 28 21 37 46 63 61 55 51 55 61 60 56
223 211 204 213 212 210 208 207 209 208 205 211 211 209 211 207 199 188 180 173 162 155 152 152 154 147 160 165 179 169 161 127 329 355 41 27 27 15 11 11 29 54 59
225 209 208 207 213 229 229 215 204 203 204 206 213 216 218 213 208 201 195 181 171 166 170 168 172 180 190 182 157 159 151 151 238 228 153 265 84 278 286 319 346 20 50
223 219 221 211 214 228 229 223 214 200 206 212 214 206 212 214 203 193 193 187 189 188 178 171 178 192 186 183 165 165 177 176 197 189 150 220 229 255 257 281 295 262 259
224 224 224 220 220 233 231 226 216 206 217 219 217 210 204 214 200 187 180 181 191 199 195 187 190 195 187 175 175 174 167 144 110 157 150 198 222 240 271 264 276 259 250
232 230 224 217 219 237 232 222 209 196 223 232 228 217 204 208 209 185 174 181 192 209 204 192 185 182 178 171 159 137 141 147 188 219 185 180 204 235 280 274 268 260 246
234 231 233 226 222 232 232 224 211 195 220 236 234 227 214 210 208 188 183 185 198 208 184 180 177 174 173 174 172 170 167 164 167 209 192 179 179 160 278 288 287 278 254